Change the Weather History Date:

Tuesday, October 2, 2012

  Actual Average Record
Temperature  
Mean Temperature 81 °F 73 °F  
Max Temperature 89 °F 84 °F 91 °F (2004)
Min Temperature 73 °F 62 °F 45 °F (2001)
Degree Days  
Heating Degree Days 0 0  
Month to date heating degree days 0 0  
Since 1 July heating degree days 0 1  
Cooling Degree Days 16 8  
Month to date cooling degree days 34 16  
Year to date cooling degree days 2954 2241  
Growing Degree Days 32 (Base 50)    
Moisture  
Dew Point 70 °F    
Average Humidity 67    
Maximum Humidity 87    
Minimum Humidity 46    
Precipitation  
Precipitation 0.35 in 0.10 in 0.92 in (1948)
Month to date precipitation 0.36 0.21  
Year to date precipitation 38.74 41.88  
Sea Level Pressure  
Sea Level Pressure 29.83 in    
Wind  
Wind Speed 4 mph (SSW)    
Max Wind Speed 14 mph    
Max Gust Speed 21 mph    
Visibility 9 miles    
Events Rain    
T = Trace of Precipitation, MM = Missing Value Source: NWS Daily Summary

Daily Weather History Graph

Daily Weather History Graph

Search for Another Location

Airport or City:

Trip Planner

Search our weather history database for the weather conditions in past years. The results will help you decide how hot, cold, wet, or windy it might be!

Date:

Astronomy

Oct. 02, 2012 Rise Set
Actual Time 7:27 AM EDT 7:16 PM EDT
Civil Twilight 7:03 AM EDT 7:40 PM EDT
Nautical Twilight 6:35 AM EDT 8:08 PM EDT
Astronomical Twilight 6:07 AM EDT 8:36 PM EDT
Moon 8:42 PM EDT (10/2) 9:40 AM EDT (10/2)
Length of Visible Light 12h 37m
Length of Day
11h 48m
Waning Gibbous, 94% of the Moon is Illuminated
Oct 2
Waning Gibbous
Oct 8
Last Quarter
Oct 15
New
Oct 21
First Quarter
Oct 29
Full

Hourly Weather History & Observations

Time (EDT) Temp. Heat Index Dew Point Humidity Pressure Visibility Wind Dir Wind Speed Gust Speed Precip Events Conditions
12:53 AM 78.1 °F - 73.0 °F 84% 29.75 in 10.0 mi South 9.2 mph - N/A   Partly Cloudy
1:53 AM 78.1 °F - 73.0 °F 84% 29.76 in 6.0 mi SW 4.6 mph - 0.01 in Rain Rain
1:56 AM 78.8 °F - 73.4 °F 83% 29.75 in 3.0 mi SSW 5.8 mph - 0.05 in Rain Heavy Rain
1:59 AM 78.8 °F - 73.4 °F 83% 29.75 in 1.8 mi Variable 5.8 mph - 0.12 in Rain Heavy Rain
2:12 AM 77.0 °F - 73.4 °F 89% 29.74 in 3.0 mi SSW 4.6 mph - 0.25 in Rain Light Rain
2:30 AM 78.8 °F - 73.4 °F 83% 29.75 in 6.0 mi Variable 5.8 mph - 0.29 in Rain Light Rain
2:37 AM 78.8 °F - 73.4 °F 83% 29.75 in 10.0 mi South 6.9 mph - 0.29 in   Overcast
2:53 AM 78.1 °F - 73.9 °F 87% 29.76 in 9.0 mi Variable 4.6 mph - 0.30 in Rain Light Rain
3:03 AM 78.8 °F - 73.4 °F 83% 29.75 in 10.0 mi South 5.8 mph - N/A   Overcast
3:37 AM 77.0 °F - 73.4 °F 89% 29.75 in 10.0 mi SSW 4.6 mph - 0.00 in   Mostly Cloudy
3:53 AM 77.0 °F - 73.0 °F 88% 29.77 in 7.0 mi Calm Calm - 0.01 in Rain Light Rain
4:02 AM 77.0 °F - 73.4 °F 89% 29.75 in 9.0 mi Calm Calm - 0.00 in Rain Light Rain
4:10 AM 77.0 °F - 73.4 °F 89% 29.75 in 7.0 mi SSW 3.5 mph - 0.00 in Rain Light Rain
4:15 AM 77.0 °F - 73.4 °F 89% 29.76 in 9.0 mi SSW 3.5 mph - 0.00 in Rain Light Rain
4:32 AM 77.0 °F - 73.4 °F 89% 29.76 in 10.0 mi Calm Calm - 0.00 in   Overcast
4:53 AM 77.0 °F - 73.0 °F 88% 29.78 in 10.0 mi Calm Calm - 0.00 in   Overcast
5:32 AM 75.2 °F - 71.6 °F 89% 29.78 in 4.0 mi Variable 3.5 mph - 0.02 in Rain Light Rain
5:53 AM 75.0 °F - 70.0 °F 84% 29.81 in 9.0 mi Calm Calm - 0.03 in Rain Light Rain
6:53 AM 75.0 °F - 71.1 °F 87% 29.81 in 9.0 mi Calm Calm - 0.00 in   Overcast
7:53 AM 75.0 °F - 71.1 °F 87% 29.83 in 9.0 mi Calm Calm - N/A   Overcast
8:53 AM 75.9 °F - 71.1 °F 85% 29.85 in 10.0 mi South 3.5 mph - N/A   Overcast
9:53 AM 79.0 °F - 71.1 °F 77% 29.87 in 10.0 mi South 4.6 mph - N/A   Mostly Cloudy
10:40 AM 80.6 °F 83.9 °F 69.8 °F 70% 29.87 in 10.0 mi Calm Calm - N/A   Mostly Cloudy
10:53 AM 81.0 °F 84.1 °F 69.1 °F 67% 29.88 in 10.0 mi WSW 5.8 mph - N/A   Overcast
11:53 AM 84.0 °F 88.4 °F 70.0 °F 63% 29.89 in 10.0 mi South 8.1 mph - N/A   Mostly Cloudy
12:07 PM 82.4 °F 86.3 °F 69.8 °F 66% 29.88 in 10.0 mi West 4.6 mph - N/A   Mostly Cloudy
12:16 PM 80.6 °F 83.9 °F 69.8 °F 70% 29.88 in 10.0 mi SW 4.6 mph - N/A   Mostly Cloudy
12:53 PM 86.0 °F 90.1 °F 69.1 °F 57% 29.89 in 10.0 mi SSW 6.9 mph - N/A   Mostly Cloudy
1:53 PM 87.1 °F 90.6 °F 68.0 °F 53% 29.88 in 10.0 mi Variable 6.9 mph - N/A   Mostly Cloudy
2:53 PM 89.1 °F 92.1 °F 66.9 °F 48% 29.87 in 10.0 mi SW 8.1 mph 20.7 mph N/A   Scattered Clouds
3:53 PM 86.0 °F 87.6 °F 64.9 °F 49% 29.88 in 10.0 mi SW 9.2 mph 20.7 mph N/A   Partly Cloudy
4:53 PM 87.1 °F 88.9 °F 64.9 °F 48% 29.88 in 10.0 mi South 10.4 mph 16.1 mph N/A   Scattered Clouds
5:53 PM 84.0 °F 84.9 °F 63.0 °F 49% 29.89 in 10.0 mi SSW 6.9 mph - N/A   Scattered Clouds
6:53 PM 80.1 °F 81.5 °F 63.0 °F 56% 29.91 in 10.0 mi SSW 4.6 mph - N/A   Clear
9:53 PM 75.9 °F - 64.9 °F 69% 29.99 in 10.0 mi Calm Calm - N/A   Clear
10:53 PM 75.0 °F - 64.9 °F 71% 30.02 in 10.0 mi South 4.6 mph - N/A   Clear
11:53 PM 73.9 °F - 66.0 °F 76% 30.03 in 10.0 mi South 3.5 mph - N/A   Clear